Location: Hains Lake
(37.8540°N, 99.8578°W)
Time: 10:59:06
(UTC+00:00)

Tiros 1 despin weight - Pass Details

Date: 28 April 2021
Orbit: 593 x 642 km, 48.2° (Epoch: 07 May)

Event Time Altitude Azimuth Distance (km) Brightness Sun altitude
Rises 12:21:22 0° 301° (WNW) 2,916 ? 5.7°
Reaches altitude 10° 12:24:03 10° 315° (NW) 1,999 ? 6.3°
Maximum altitude 12:27:53 25° 11° (NNE) 1,253 ? 7.0°
Drops below altitude 10° 12:31:39 10° 68° (ENE) 1,970 ? 7.7°
Sets 12:34:16 0° 81° (E) 2,864 ? 8.2°
